Location: London
(51.5166°N, 0.1046°W)
Time: 06:23:09
(UTC+01:00)

ISS - Visible Passes

Search period start: 27 July 2016 00:00
Search period end: 06 August 2016 00:00
Orbit: 401 x 404 km, 51.6° (Epoch: 26 July)

Date Brightness Start Highest point End Pass type
(mag) Time Alt. Az. Time Alt. Az. Time Alt. Az.
27 Jul -3.4 01:07:13 10° W 01:10:30 86° N 01:13:47 10° E visible
27 Jul -3.4 02:43:41 10° W 02:46:55 61° SSW 02:50:08 10° ESE visible
27 Jul -1.8 04:20:38 10° W 04:22:54 18° SW 04:25:10 10° S visible
27 Jul -2.8 22:38:14 10° SW 22:41:16 36° SSE 22:44:19 10° E visible
28 Jul -3.5 00:14:17 10° W 00:17:33 89° SSE 00:20:50 10° E visible
28 Jul -2.6 01:50:44 10° W 01:55:13 35° ESE 01:57:16 10° ESE visible
28 Jul -2.4 03:28:34 18° WSW 03:30:10 27° SSW 03:32:57 10° SSE visible
28 Jul -2.2 21:45:46 10° SSW 21:48:28 25° SSE 21:51:13 10° E visible
28 Jul -3.5 23:21:21 10° WSW 23:24:37 75° SSE 23:27:52 10° E visible
29 Jul -3.1 00:57:47 10° W 01:00:30 59° W 01:00:30 59° W visible
29 Jul -3.3 22:28:29 10° WSW 22:31:42 57° SSE 22:34:55 10° E visible
30 Jul -3.4 00:04:49 10° W 00:08:06 85° N 00:09:01 44° E visible
30 Jul -0.7 01:41:17 10° W 01:41:35 12° W 01:41:35 12° W visible
30 Jul -2.9 21:35:44 10° SW 21:38:49 40° SSE 21:41:55 10° E visible
30 Jul -3.4 23:11:51 10° W 23:15:08 89° N 23:17:38 16° E visible
31 Jul -2.1 00:48:19 10° W 00:50:13 32° W 00:50:13 32° W visible
31 Jul -3.4 22:18:55 10° WSW 22:22:10 80° SSE 22:25:26 10° E visible
31 Jul -3.5 23:55:21 10° W 23:58:38 88° S 23:58:53 75° ESE visible
01 Aug -3.3 21:26:01 10° WSW 21:29:14 63° SSE 21:32:29 10° E visible
01 Aug -3.4 23:02:23 10° W 23:05:39 86° N 23:07:35 23° E visible
02 Aug -1.4 00:38:50 10° W 00:40:09 21° W 00:40:09 21° W visible
02 Aug -3.4 22:09:24 10° W 22:12:41 87° N 22:15:56 10° E visible
02 Aug -3.3 23:45:51 10° W 23:48:51 65° SW 23:48:51 65° SW visible
03 Aug -3.4 21:16:26 10° WSW 21:19:42 84° S 21:22:58 10° E visible
03 Aug -3.5 22:52:53 10° W 22:56:09 85° S 22:57:34 31° ESE visible
04 Aug -0.9 00:29:25 10° W 00:30:09 15° W 00:30:09 15° W visible
04 Aug -3.3 21:59:54 10° W 22:03:10 87° N 22:06:18 11° E visible
04 Aug -2.6 23:36:22 10° W 23:38:53 40° WSW 23:38:53 40° WSW visible
05 Aug -3.4 22:43:21 10° W 22:46:36 64° SSW 22:47:38 38° SE visible
